Flag for Germany Weather past 2 weeks in Neunkirchen (Saar), Saarland, Germany

Now
64 °F

Clear.


Feels Like: 64 °F
Forecast: 62 / 70 °F
Wind: 6 mph from Northeast

Location: Saarbruecken / Ensheim

Current Time: Jul 7, 2015 at 2:44:04 AM

Latest Report: Jul 7, 2015 at 2:20 AM


Visibility: 10 mi

Pressure: 30.04 "Hg

Humidity: 56%

Dew point: 48 °F

Location of Neunkirchen (Saar)Location

Historic Weather in Neunkirchen (Saar) — Graph

°F

Neunkirchen (Saar) temperature yesterday

Maximum temperature yesterday: 82 °F (at 4:50 PM)
Minimum temperature yesterday: 59 °F (at 4:50 AM)
Average temperature yesterday: 71 °F

Past Weeks' High & Low Weather Summary

 TemperatureHumidityPressure
High97 °F (Jul 4, 4:50 PM)100% (Jun 23, 6:20 AM)30.24 "Hg (Jun 23, 6:20 AM)
Low45 °F (Jun 23, 3:20 AM)23% (Jul 5, 4:20 PM)29.74 "Hg (Jun 22, 9:50 PM)
Average70 °F57%30.11 "Hg
* Reported Jun 22 1:20 AM — Jul 7 1:20 AM, Neunkirchen (Saar), Weather by CustomWeather, © 2015

Note: Actual official high and low records may vary slightly from our data, if they occured in-between our weather recording intervals... More about our weather records

Advertising

Neunkirchen (Saar) weather history for previous 24 hours

 ConditionsComfort  
Time TempWeatherWind HumidityBarometerVisibility
1:20 AM
Tue, Jul 7
64 °FClear.6 mph56%30.04 "Hg10 mi
12:50 AM66 °FClear.5 mph52%30.07 "Hg10 mi
12:20 AM66 °FClear.6 mph52%30.07 "Hg10 mi
11:50 PM
Mon, Jul 6
66 °FClear.5 mph52%30.07 "Hg10 mi
11:20 PM68 °FClear.5 mph46%30.07 "Hg10 mi
10:50 PM68 °FClear.5 mph46%30.07 "Hg10 mi
10:20 PM70 °FSunny.5 mph46%30.07 "Hg10 mi
9:50 PM73 °FSunny.2 mph36%30.07 "Hg10 mi
9:20 PM75 °FSunny.2 mph36%30.09 "Hg10 mi
8:50 PM79 °FSunny.2 mph28%30.09 "Hg10 mi
8:20 PM81 °FSunny.1 mph24%30.09 "Hg10 mi
7:50 PM81 °FSunny.2 mph26%30.09 "Hg10 mi
7:20 PM81 °FPassing clouds.5 mph24%30.09 "HgN/A
6:50 PM82 °FSunny.2 mph23%30.09 "Hg10 mi
6:20 PM82 °FPassing clouds.5 mph23%30.09 "HgN/A
5:50 PM81 °FSunny.2 mph26%30.12 "Hg10 mi
5:20 PM82 °FPassing clouds.6 mph26%30.12 "HgN/A
4:50 PM82 °FSunny.6 mph26%30.12 "Hg10 mi
4:20 PM81 °FSunny.7 mph28%30.15 "Hg10 mi
3:50 PM81 °FSunny.6 mph30%30.15 "Hg10 mi
3:20 PM79 °FSunny.6 mph32%30.15 "Hg10 mi
2:50 PM79 °FSunny.6 mph30%30.15 "Hg10 mi
2:20 PM79 °FSunny.5 mph30%30.18 "Hg10 mi
1:50 PM77 °FPassing clouds.7 mph32%30.18 "HgN/A
1:20 PM75 °FSunny.6 mph31%30.18 "Hg10 mi
12:50 PM75 °FSunny.5 mph34%30.18 "Hg10 mi
12:20 PM75 °FPassing clouds.9 mph36%30.21 "HgN/A
11:50 AM73 °FPassing clouds.7 mph38%30.21 "HgN/A
11:20 AM72 °FSunny.5 mph41%30.21 "Hg10 mi
10:50 AM72 °FSunny.5 mph38%30.21 "Hg10 mi
10:20 AM70 °FSunny.3 mph40%30.24 "Hg10 mi
9:50 AM68 °FPassing clouds.3 mph43%30.24 "HgN/A
9:20 AM66 °FSunny.2 mph49%30.24 "Hg10 mi
8:50 AM64 °FSunny.2 mph56%30.24 "Hg10 mi
8:20 AM64 °FSunny.3 mph64%30.21 "Hg10 mi
7:50 AM63 °FSunny.7 mph73%30.21 "Hg10 mi
7:20 AM63 °FSunny.7 mph73%30.21 "Hg10 mi
6:50 AM61 °FSunny.6 mph77%30.21 "Hg10 mi
6:20 AM59 °FPassing clouds.5 mph88%30.21 "HgN/A
5:50 AM59 °FPassing clouds.6 mph82%30.18 "HgN/A
5:20 AM59 °FClear.8 mph82%30.18 "Hg10 mi
4:50 AM59 °FClear.6 mph82%30.18 "Hg10 mi
4:20 AM61 °FClear.6 mph77%30.18 "Hg10 mi
3:50 AM63 °FClear.8 mph77%30.18 "Hg10 mi
3:20 AM63 °FClear.7 mph77%30.18 "Hg10 mi
2:50 AM64 °FClear.10 mph78%30.18 "Hg10 mi
2:20 AM66 °FClear.10 mph73%30.15 "Hg10 mi
Weather by CustomWeather, © 2015

See weather overviewHow to use our weather pages